Location: Bottom School (historical)
(37.9078°N, 89.3593°W)
Time: 19:55:20
(UTC+00:00)

STRAND 1 - Pass Details

Date: 06 April 2023
Orbit: 767 x 779 km, 98.4° (Epoch: 30 May)

Event Time Altitude Azimuth Distance (km) Brightness Sun altitude
Rises 10:16:01 0° 108° (ESE) 3,244 ? -15.9°
Reaches altitude 10° 10:20:51 10° 67° (ENE) 2,320 ? -15.1°
Maximum altitude 10:21:26 10° 60° (ENE) 2,306 ? -14.9°
Drops below altitude 10° 10:22:02 10° 53° (NE) 2,320 ? -14.8°
Sets 10:26:52 0° 12° (NNE) 3,250 ? -13.9°
